Regional Weather Roundup
Issued by NWS

Home | Current Version | Previous Version | Graphics & Text | Print | Product List | Glossary On
Versions: 1 2 3 4 5 6 7 8 9 10 11 12 13 14 15 16 17 18 19 20 21 22 23 24 25 26 27 28 29 30 31 32 33 34 35 36 37 38 39 40 41 42 43 44 45 46 47 48 49 50
000
ASUS43 KMPX 210210
RWRMN
WEATHER ROUNDUP FOR MINNESOTA
NATIONAL WEATHER SERVICE TWIN CITIES/CHANHASSEN MN
900 PM CDT FRI APR 20 2018


NOTE: "FAIR" INDICATES FEW OR NO CLOUDS BELOW 12,000 FEET WITH NO
SIGNIFICANT WEATHER AND/OR OBSTRUCTIONS TO VISIBILITY. N/A MEANS
CURRENT SKY AND/OR WEATHER CONDITIONS ARE NOT AVAILABLE.

MNZ060>063-068>070-210300-
   Twin Cities Metro

CITY           SKY/WX    TMP DP  RH WIND       PRES   REMARKS
TWIN CITIES    MOCLDY    48  20  32 SW6       30.44R
ST PAUL        FAIR      43  27  53 S5        30.45R
CRYSTAL        FAIR      45  24  43 W6        30.43R
BLAINE         MOCLDY    46  25  42 SW5       30.44R
LAKEVILLE      FAIR      39  27  60 CALM      30.44R
EDEN PRAIRIE   FAIR      45  25  45 SW3       30.43R
SOUTH ST PAUL  FAIR      44  23  42 CALM      30.44R
LAKE ELMO      FAIR      41  28  60 CALM      30.44S
$$
MNZ001>005-007-008-013>017-022>024-027-028-210300-
   Northwest Minnesota

CITY           SKY/WX    TMP DP  RH WIND       PRES   REMARKS
BEMIDJI        FAIR      47  25  42 S6        30.36S
HALLOCK        FAIR      45  39  81 SE5       30.35R
ROSEAU         FAIR      48  36  61 W3        30.35S
WARROAD        FAIR      48  34  57 W6        30.36R
THIEF RVR FALL FAIR      48  36  63 W3        30.37R
CROOKSTON      FAIR      46  36  66 S5        30.37R
FOSSTON        FAIR      41  30  65 SW6       30.37S
DETROIT LAKES  FAIR      45  21  39 CALM      30.39S
MOORHEAD       FAIR      46  37  71 S8        30.38R
PARK RAPIDS    FAIR      43  25  49 S6        30.37S
MAHNOMEN       FAIR      42  28  56 S8        30.37S
$$
MNZ006-009>011-018-025>026-210300-
   North Central Minnesota

CITY           SKY/WX    TMP DP  RH WIND       PRES   REMARKS
BAUDETTE       FAIR      47  30  51 CALM      30.35R
FLAG ISLAND    FAIR      37  28  70 SE5       30.33F
INTL FALLS     FAIR      40  25  55 CALM      30.34S
WASKISH        FAIR      39  28  65 CALM      30.36R
BIG FORK       FAIR      43  23  45 CALM      30.36S
LONGVILLE      FAIR      46  18  31 S3        30.38R
GRAND RAPIDS   FAIR      46  24  42 S7        30.39R
CRANE LAKE     FAIR      36  19  51 CALM      30.37S
ORR            FAIR      46  12  25 CALM      30.33S
COOK           FAIR      43  21  42 CALM      30.36S
WALKER         FAIR      47  22  38 SW3       30.37S
$$
MNZ012-019>021-037-210300-
   Northeast Minnesota

CITY           SKY/WX    TMP DP  RH WIND       PRES   REMARKS
DULUTH         FAIR      47  25  42 SW8       30.38S
ELY            FAIR      39  19  45 CALM      30.36R
HIBBING        FAIR      38  18  44 SW3       30.36R
EVELETH        FAIR      46  23  41 SW7       30.38R
DULUTH HARBOR  FAIR      48  25  40 SW6       30.39S
TWO HARBORS    FAIR      45  25  45 CALM      30.36S
SILVER BAY     FAIR      39  25  56 CALM      30.37R
GRAND MARAIS     N/A     36  31  82 E3        30.40R
G MARAIS ARPRT FAIR      41  12  30 CALM      30.39R
$$
MNZ029>031-032-039>041-046>048-054>057-064-210300-
   West Central Minnesota

CITY           SKY/WX    TMP DP  RH WIND       PRES   REMARKS
FERGUS FALLS   FAIR      43  36  75 S6        30.38R
WHEATON        PTCLDY    41  36  81 SE10      30.41S
MORRIS         CLOUDY    39  36  87 S7        30.40S
ALEXANDRIA     FAIR      44  35  70 S8        30.41R
ELBOW LAKE     FAIR      40  38  91 S8        30.40R
WADENA         FAIR      41  27  56 CALM      30.39R
GLENWOOD       FAIR      39  36  87 S8        30.42R
APPLETON       CLOUDY    39  30  70 SE6       30.42S
BENSON         CLOUDY    41  34  75 SW6       30.44S
ORTONVILLE     CLOUDY    37  34  87 SE8       30.40S
MADISON        CLOUDY    37  34  87 SE6       30.41S
WILLMAR        FAIR      39  36  87 CALM      30.45S
$$
MNZ033>034-036-042>043-049>051-058-059-210300-
   Central Minnesota

CITY           SKY/WX    TMP DP  RH WIND       PRES   REMARKS
ST CLOUD       FAIR      41  26  55 SW6       30.43R
SAUK CENTRE    FAIR      38  32  79 S7        30.42R
PAYNESVILLE    FAIR      41  32  70 S3        30.44R
AITKIN         FAIR      37  18  44 CALM      30.39R
PINE RIVER     FAIR      43  21  42 CALM      30.41S
BRAINERD       FAIR      42  23  46 S8        30.40S
STAPLES        FAIR      43  19  39 S3        30.40R
LONG PRAIRIE   FAIR      37  30  75 SE6       30.41S
LITTLE FALLS   FAIR      39  18  41 S3        30.42R
LITCHFIELD     FAIR      39  30  70 CALM      30.44R
BUFFALO        FAIR      42  28  57 CALM      30.45R
MAPLE LAKE     FAIR      38  30  72 CALM      30.45R
HUTCHINSON     FAIR      39  34  82 CALM      30.45R
$$
MNZ037-044-045-052-053-210300-
   East Central Minnesota

CITY           SKY/WX    TMP DP  RH WIND       PRES   REMARKS
PRINCETON      FAIR      37  23  56 CALM      30.43R
MORA           FAIR      41  21  45 SW3       30.43S
CAMBRIDGE      FAIR      43  25  49 CALM      30.43R
RUSH CITY      FAIR      41  23  49 CALM      30.43R
MOOSE LAKE     FAIR      43  21  42 CALM      30.38S
HINCKLEY       FAIR      41  25  52 CALM      30.41F
CLOQUET        FAIR      46  16  29 SW5       30.38S
MCGREGOR       FAIR      43  19  39 SW3       30.39S
$$
MNZ071>073-080-081-089-090-097-098-210300-
   Southwest Minnesota

CITY           SKY/WX    TMP DP  RH WIND       PRES   REMARKS
MONTEVIDEO     CLOUDY    37  30  75 S5        30.42F
GRANITE FALLS  CLOUDY    39  32  75 SE6       30.44R
CANBY          CLOUDY    37  34  87 E5        30.42R
MARSHALL       CLOUDY    37  31  78 SE6       30.42S
REDWOOD FALLS  CLOUDY    37  31  78 SE6       30.42F
OLIVIA         CLOUDY    39  32  75 SE3       30.42F
PIPESTONE      CLOUDY   N/A N/A N/A E6        30.39R
WINDOM         CLOUDY    36  19  51 CALM      30.42R
WORTHINGTON    CLOUDY    35  31  85 E5        30.41R WCI  31
JACKSON        CLOUDY    34  30  86 E6        30.42S WCI  29
TRACY          CLOUDY    37  32  81 S3        30.41S
SLAYTON        CLOUDY    36  32  86 E3        30.41S
$$
MNZ065>067-074>077-082>085-091>093-210300-
   South Central Minnesota

CITY           SKY/WX    TMP DP  RH WIND       PRES   REMARKS
MANKATO        FAIR      40  26  57 CALM      30.44S
NEW ULM        PTCLDY    39  25  56 CALM      30.44S
ST JAMES       CLOUDY    37  28  70 CALM      30.44S
FAIRMONT       CLOUDY    38  27  64 E5        30.42S
GLENCOE        FAIR      38  33  80 CALM      30.44R
FARIBAULT      FAIR      41  28  60 CALM      30.44S
OWATONNA       FAIR      39  30  70 CALM      30.43F
WASECA         FAIR      37  30  75 CALM      30.44F
ALBERT LEA     FAIR      37  25  60 CALM      30.42S
$$
MNZ078>079-086>088-094>096-210300-
   Southeast Minnesota

CITY           SKY/WX    TMP DP  RH WIND       PRES   REMARKS
ROCHESTER      FAIR      39  26  59 CALM      30.43S
RED WING       FAIR      39  23  52 CALM      30.44R
STANTON        FAIR      39  31  72 CALM      30.43S
DODGE CENTER   FAIR      37  27  65 CALM      30.43S
WINONA         FAIR      43  28  56 CALM      30.43R
AUSTIN         FAIR      37  27  65 E3        30.42F
PRESTON        FAIR      39  23  51 CALM      30.44S
$$
ABBREVIATIONS USED IN REMARKS
   TC - TEMPERATURES IN CELSIUS
  WCI - WIND CHILL INDEX
   HX - HEAT INDEX
  VSB - VISIBILITY
$$



USA.gov is the U.S. government's official web portal to all federal, state and local government web resources and services.